QPF
0.00 0.00 0.00 0.01 0.01 0.01 0.01 0.01 0.00 0.00 0.00 0.00 0.00 0.00 0.00 0.00 0.00 0.00 0.00 0.00 0.00 0.00 0.00 0.00 0.00 0.00 0.00 0.00 0.00 0.00 0.00 0.00 0.00 0.00 0.00 0.00 0.00 0.00 0.00 0.00 0.00 0.00 0.00 0.00
0.00 0.00 0.00 0.00 0.01 0.01 0.00 0.00 0.00 0.00 0.00 0.00 0.00 0.00 0.00 0.00 0.00 0.00 0.00 0.00 0.00 0.00 0.00 0.00 0.00 0.00 0.00 0.00 0.00 0.00 0.00 0.00 0.00 0.00 0.00 0.00 0.00 0.00 0.00 0.00 0.00 0.00 0.00 0.00
0.00 0.00 0.00 0.00 0.01 0.01 0.00 0.00 0.00 0.00 0.00 0.00 0.00 0.00 0.00 0.00 0.00 0.00 0.00 0.00 0.00 0.00 0.00 0.00 0.00 0.00 0.00 0.00 0.00 0.00 0.00 0.00 0.00 0.00 0.00 0.00 0.00 0.00 0.00 0.00 0.00 0.00 0.00 0.00
0.01 0.01 0.00 0.00 0.01 0.01 0.01 0.01 0.00 0.00 0.00 0.00 0.00 0.00 0.00 0.00 0.00 0.00 0.00 0.01 0.01 0.01 0.01 0.00 0.00 0.00 0.00 0.00 0.00 0.00 0.00 0.00 0.00 0.00 0.00 0.00 0.00 0.00 0.00 0.00 0.00 0.00 0.00 0.00
0.01 0.01 0.00 0.00 0.01 0.01 0.01 0.00 0.00 0.00 0.00 0.01 0.01 0.01 0.01 0.01 0.00 0.00 0.00 0.01 0.01 0.00 0.01 0.01 0.01 0.01 0.00 0.00 0.00 0.00 0.00 0.00 0.00 0.00 0.00 0.00 0.00 0.00 0.00 0.00 0.00 0.00 0.00 0.00
0.03 0.02 0.01 0.00 0.01 0.01 0.01 0.01 0.01 0.01 0.01 0.01 0.01 0.01 0.01 0.01 0.00 0.00 0.00 0.00 0.00 0.01 0.01 0.01 0.01 0.01 0.01 0.01 0.01 0.00 0.00 0.00 0.00 0.00 0.00 0.00 0.00 0.00 0.00 0.00 0.00 0.00 0.00 0.00
0.03 0.02 0.01 0.00 0.01 0.01 0.02 0.01 0.01 0.01 0.01 0.01 0.01 0.01 0.01 0.01 0.01 0.01 0.01 0.01 0.01 0.01 0.01 0.00 0.01 0.01 0.01 0.00 0.00 0.00 0.00 0.00 0.01 0.01 0.01 0.00 0.00 0.00 0.00 0.00 0.00 0.00 0.00 0.00
0.02 0.02 0.01 0.01 0.01 0.01 0.01 0.01 0.01 0.01 0.01 0.01 0.01 0.01 0.01 0.01 0.01 0.01 0.01 0.00 0.00 0.00 0.00 0.00 0.00 0.00 0.00 0.00 0.00 0.00 0.00 0.00 0.00 0.00 0.00 0.00 0.00 0.00 0.00 0.00 0.00 0.00 0.00 0.00
0.01 0.02 0.02 0.02 0.01 0.01 0.02 0.02 0.02 0.01 0.01 0.01 0.02 0.01 0.01 0.01 0.01 0.00 0.00 0.00 0.00 0.00 0.00 0.00 0.00 0.00 0.00 0.00 0.00 0.00 0.00 0.00 0.00 0.00 0.00 0.00 0.00 0.00 0.00 0.00 0.00 0.00 0.00 0.00
0.01 0.01 0.01 0.02 0.01 0.01 0.01 0.01 0.01 0.01 0.01 0.01 0.01 0.01 0.01 0.01 0.01 0.00 0.00 0.00 0.00 0.00 0.00 0.00 0.00 0.00 0.00 0.00 0.00 0.00 0.00 0.00 0.00 0.00 0.00 0.00 0.00 0.00 0.00 0.00 0.00 0.01 0.01 0.00
0.02 0.02 0.02 0.02 0.02 0.01 0.01 0.01 0.01 0.01 0.01 0.01 0.01 0.01 0.01 0.01 0.01 0.01 0.01 0.00 0.00 0.00 0.00 0.00 0.00 0.00 0.00 0.00 0.00 0.00 0.00 0.00 0.00 0.00 0.00 0.00 0.00 0.00 0.00 0.00 0.01 0.01 0.00 0.00
0.02 0.02 0.02 0.02 0.02 0.02 0.01 0.01 0.02 0.01 0.01 0.01 0.01 0.01 0.01 0.01 0.01 0.01 0.01 0.01 0.01 0.01 0.01 0.00 0.00 0.00 0.00 0.00 0.00 0.00 0.00 0.00 0.00 0.00 0.00 0.00 0.00 0.00 0.00 0.00 0.00 0.00 0.00 0.00
0.02 0.02 0.02 0.02 0.02 0.02 0.02 0.01 0.01 0.01 0.01 0.01 0.01 0.02 0.01 0.01 0.01 0.02 0.01 0.01 0.01 0.01 0.01 0.00 0.00 0.00 0.00 0.00 0.00 0.00 0.00 0.01 0.01 0.01 0.01 0.01 0.00 0.00 0.00 0.00 0.00 0.00 0.00 0.00
0.04 0.03 0.02 0.02 0.02 0.02 0.02 0.02 0.02 0.02 0.01 0.01 0.02 0.02 0.01 0.01 0.02 0.02 0.02 0.02 0.02 0.01 0.01 0.01 0.01 0.00 0.00 0.01 0.01 0.01 0.01 0.01 0.01 0.01 0.01 0.01 0.01 0.01 0.01 0.00 0.00 0.00 0.00 0.00
0.04 0.04 0.03 0.03 0.03 0.03 0.02 0.02 0.02 0.02 0.02 0.02 0.03 0.03 0.03 0.02 0.02 0.02 0.02 0.02 0.02 0.01 0.01 0.01 0.01 0.01 0.01 0.01 0.01 0.01 0.01 0.01 0.02 0.02 0.02 0.02 0.02 0.01 0.01 0.01 0.01 0.00 0.00 0.00
0.05 0.05 0.04 0.04 0.03 0.03 0.03 0.03 0.03 0.02 0.02 0.02 0.02 0.02 0.03 0.03 0.03 0.02 0.02 0.02 0.01 0.01 0.01 0.01 0.01 0.01 0.01 0.01 0.01 0.02 0.03 0.03 0.03 0.03 0.02 0.02 0.02 0.02 0.02 0.02 0.02 0.01 0.01 0.01
0.06 0.05 0.05 0.05 0.05 0.05 0.04 0.04 0.03 0.03 0.02 0.02 0.02 0.02 0.02 0.02 0.02 0.01 0.01 0.01 0.01 0.01 0.01 0.01 0.01 0.02 0.02 0.02 0.03 0.04 0.04 0.04 0.04 0.03 0.03 0.02 0.02 0.02 0.02 0.02 0.01 0.01 0.01 0.01
0.06 0.06 0.06 0.05 0.05 0.05 0.05 0.04 0.04 0.03 0.03 0.03 0.03 0.03 0.03 0.02 0.01 0.01 0.01 0.01 0.01 0.01 0.02 0.02 0.03 0.03 0.03 0.04 0.04 0.04 0.04 0.03 0.03 0.03 0.02 0.01 0.01 0.01 0.01 0.01 0.01 0.01 0.01 0.01
0.06 0.04 0.03 0.03 0.03 0.03 0.04 0.03 0.03 0.02 0.02 0.02 0.03 0.03 0.03 0.02 0.01 0.01 0.01 0.01 0.01 0.02 0.02 0.02 0.03 0.03 0.03 0.03 0.03 0.02 0.02 0.02 0.02 0.01 0.01 0.00 0.00 0.00 0.00 0.01 0.01 0.00 0.01 0.01
0.04 0.03 0.03 0.02 0.02 0.02 0.02 0.02 0.02 0.01 0.01 0.01 0.01 0.01 0.01 0.01 0.01 0.01 0.01 0.01 0.01 0.02 0.02 0.01 0.01 0.01 0.01 0.01 0.01 0.01 0.02 0.02 0.01 0.01 0.00 0.00 0.00 0.00 0.00 0.00 0.01 0.01 0.01 0.01
0.04 0.03 0.02 0.02 0.01 0.02 0.02 0.01 0.01 0.01 0.01 0.00 0.00 0.00 0.00 0.01 0.01 0.01 0.01 0.01 0.00 0.01 0.01 0.00 0.00 0.00 0.00 0.00 0.00 0.00 0.01 0.00 0.00 0.00 0.00 0.00 0.00 0.00 0.00 0.00 0.00 0.01 0.01 0.01
0.05 0.04 0.03 0.03 0.03 0.02 0.01 0.01 0.01 0.00 0.00 0.00 0.00 0.00 0.00 0.00 0.00 0.00 0.01 0.00 0.00 0.00 0.00 0.00 0.00 0.00 0.00 0.00 0.00 0.00 0.00 0.00 0.00 0.00 0.00 0.00 0.00 0.00 0.00 0.00 0.01 0.01 0.01 0.01
0.07 0.06 0.05 0.05 0.04 0.03 0.02 0.01 0.01 0.00 0.00 0.00 0.00 0.00 0.00 0.00 0.00 0.01 0.01 0.01 0.01 0.01 0.01 0.00 0.00 0.00 0.00 0.00 0.00 0.00 0.00 0.00 0.00 0.00 0.00 0.00 0.00 0.00 0.01 0.01 0.01 0.02 0.02 0.02
0.07 0.06 0.04 0.03 0.03 0.03 0.02 0.01 0.01 0.00 0.00 0.00 0.01 0.01 0.00 0.00 0.00 0.00 0.00 0.00 0.00 0.00 0.00 0.00 0.00 0.00 0.00 0.00 0.00 0.00 0.00 0.00 0.00 0.00 0.00 0.00 0.00 0.00 0.01 0.01 0.01 0.01 0.02 0.02
0.01 0.01 0.01 0.01 0.01 0.01 0.01 0.01 0.01 0.00 0.00 0.00 0.00 0.00 0.00 0.00 0.00 0.00 0.00 0.00 0.00 0.00 0.00 0.00 0.00 0.00 0.00 0.00 0.00 0.00 0.00 0.00 0.00 0.00 0.00 0.00 0.00 0.00 0.00 0.01 0.01 0.02 0.02 0.03
0.00 0.00 0.00 0.00 0.00 0.00 0.01 0.01 0.01 0.01 0.00 0.00 0.00 0.00 0.00 0.00 0.00 0.00 0.00 0.00 0.00 0.00 0.00 0.00 0.00 0.00 0.00 0.00 0.01 0.01 0.00 0.00 0.01 0.01 0.01 0.01 0.01 0.01 0.01 0.01 0.02 0.02 0.03 0.03
0.01 0.00 0.01 0.01 0.01 0.01 0.01 0.00 0.00 0.00 0.00 0.00 0.00 0.00 0.00 0.00 0.00 0.00 0.00 0.01 0.00 0.00 0.00 0.00 0.00 0.00 0.00 0.00 0.00 0.00 0.00 0.00 0.00 0.00 0.00 0.00 0.01 0.01 0.01 0.01 0.02 0.02 0.03 0.03
MSLP
1011.57 1012.05 1012.48 1012.84 1013.10 1013.23 1013.22 1013.06 1012.77 1012.39 1011.95 1011.52 1011.15 1010.90 1010.80 1010.88 1011.12 1011.52 1012.04 1012.63 1013.26 1013.87 1014.44 1014.96 1015.42 1015.81 1016.16 1016.47 1016.75 1017.00 1017.22 1017.41 1017.57 1017.69 1017.78 1017.83 1017.85 1017.85 1017.84 1017.81 1017.77 1017.71 1017.65 1017.57
1011.56 1011.95 1012.25 1012.43 1012.48 1012.41 1012.21 1011.92 1011.57 1011.19 1010.83 1010.52 1010.31 1010.22 1010.27 1010.44 1010.75 1011.15 1011.62 1012.14 1012.68 1013.21 1013.73 1014.23 1014.70 1015.15 1015.58 1015.98 1016.35 1016.68 1016.97 1017.20 1017.38 1017.51 1017.59 1017.63 1017.64 1017.64 1017.62 1017.59 1017.56 1017.51 1017.45 1017.37
1011.63 1011.93 1012.09 1012.11 1011.98 1011.73 1011.38 1010.98 1010.57 1010.19 1009.88 1009.66 1009.57 1009.60 1009.75 1010.01 1010.34 1010.74 1011.17 1011.63 1012.09 1012.57 1013.04 1013.53 1014.02 1014.51 1015.00 1015.47 1015.91 1016.30 1016.64 1016.90 1017.09 1017.23 1017.30 1017.34 1017.35 1017.35 1017.34 1017.33 1017.31 1017.28 1017.23 1017.16
1011.73 1011.93 1011.97 1011.85 1011.58 1011.19 1010.74 1010.26 1009.80 1009.42 1009.13 1008.98 1008.96 1009.07 1009.28 1009.57 1009.92 1010.30 1010.71 1011.12 1011.54 1011.97 1012.43 1012.91 1013.41 1013.94 1014.47 1014.98 1015.47 1015.89 1016.25 1016.52 1016.72 1016.85 1016.92 1016.96 1016.98 1016.99 1017.01 1017.02 1017.02 1017.01 1016.98 1016.93
1011.78 1011.86 1011.80 1011.58 1011.22 1010.75 1010.23 1009.71 1009.24 1008.85 1008.59 1008.46 1008.47 1008.60 1008.84 1009.14 1009.48 1009.85 1010.23 1010.62 1011.03 1011.45 1011.90 1012.39 1012.91 1013.46 1014.01 1014.55 1015.04 1015.47 1015.83 1016.09 1016.29 1016.41 1016.48 1016.53 1016.56 1016.60 1016.64 1016.67 1016.71 1016.72 1016.71 1016.67
1011.67 1011.65 1011.50 1011.22 1010.82 1010.34 1009.82 1009.30 1008.83 1008.46 1008.20 1008.08 1008.09 1008.21 1008.43 1008.71 1009.03 1009.39 1009.75 1010.14 1010.54 1010.98 1011.45 1011.95 1012.50 1013.06 1013.62 1014.15 1014.64 1015.05 1015.39 1015.64 1015.82 1015.93 1016.01 1016.07 1016.12 1016.18 1016.25 1016.32 1016.37 1016.40 1016.40 1016.36
1011.32 1011.22 1011.02 1010.74 1010.36 1009.92 1009.44 1008.97 1008.55 1008.20 1007.95 1007.81 1007.79 1007.87 1008.04 1008.28 1008.57 1008.90 1009.26 1009.65 1010.07 1010.53 1011.03 1011.56 1012.12 1012.69 1013.25 1013.77 1014.23 1014.62 1014.93 1015.16 1015.33 1015.44 1015.53 1015.61 1015.68 1015.77 1015.85 1015.94 1016.01 1016.04 1016.04 1015.99
1010.71 1010.56 1010.36 1010.11 1009.81 1009.46 1009.09 1008.71 1008.35 1008.05 1007.80 1007.65 1007.58 1007.60 1007.70 1007.88 1008.12 1008.41 1008.76 1009.15 1009.60 1010.08 1010.61 1011.17 1011.74 1012.31 1012.86 1013.36 1013.79 1014.16 1014.44 1014.66 1014.82 1014.94 1015.05 1015.14 1015.24 1015.34 1015.45 1015.54 1015.60 1015.63 1015.60 1015.53
1009.89 1009.72 1009.57 1009.40 1009.22 1009.01 1008.77 1008.51 1008.25 1007.99 1007.77 1007.59 1007.46 1007.41 1007.43 1007.53 1007.71 1007.96 1008.28 1008.67 1009.13 1009.64 1010.18 1010.76 1011.33 1011.90 1012.42 1012.90 1013.30 1013.64 1013.91 1014.12 1014.28 1014.42 1014.54 1014.66 1014.78 1014.89 1015.00 1015.08 1015.12 1015.12 1015.07 1014.97
1008.97 1008.83 1008.75 1008.70 1008.66 1008.61 1008.53 1008.41 1008.24 1008.05 1007.84 1007.64 1007.46 1007.33 1007.27 1007.28 1007.39 1007.58 1007.87 1008.25 1008.70 1009.21 1009.76 1010.33 1010.89 1011.43 1011.93 1012.37 1012.74 1013.06 1013.31 1013.52 1013.70 1013.85 1014.00 1014.13 1014.26 1014.38 1014.47 1014.53 1014.54 1014.50 1014.41 1014.28
1008.10 1008.02 1008.03 1008.11 1008.22 1008.33 1008.41 1008.42 1008.36 1008.23 1008.05 1007.83 1007.60 1007.40 1007.26 1007.20 1007.23 1007.37 1007.61 1007.96 1008.38 1008.87 1009.39 1009.92 1010.45 1010.94 1011.39 1011.78 1012.12 1012.41 1012.65 1012.87 1013.05 1013.23 1013.39 1013.54 1013.67 1013.77 1013.84 1013.86 1013.83 1013.74 1013.61 1013.45
1007.42 1007.41 1007.52 1007.73 1007.99 1008.25 1008.46 1008.59 1008.62 1008.55 1008.38 1008.16 1007.90 1007.65 1007.45 1007.32 1007.29 1007.37 1007.56 1007.86 1008.23 1008.67 1009.13 1009.60 1010.06 1010.48 1010.86 1011.19 1011.48 1011.73 1011.96 1012.16 1012.36 1012.54 1012.71 1012.87 1012.99 1013.07 1013.10 1013.08 1012.99 1012.86 1012.69 1012.51
1007.02 1007.09 1007.31 1007.62 1008.00 1008.37 1008.68 1008.90 1009.00 1008.98 1008.84 1008.62 1008.35 1008.07 1007.83 1007.66 1007.59 1007.62 1007.76 1007.99 1008.30 1008.66 1009.04 1009.41 1009.77 1010.09 1010.38 1010.63 1010.85 1011.06 1011.25 1011.45 1011.64 1011.82 1012.00 1012.14 1012.24 1012.29 1012.28 1012.21 1012.07 1011.90 1011.69 1011.48
1006.91 1007.07 1007.37 1007.77 1008.22 1008.67 1009.05 1009.33 1009.48 1009.49 1009.39 1009.18 1008.92 1008.65 1008.40 1008.22 1008.12 1008.12 1008.21 1008.38 1008.61 1008.87 1009.13 1009.39 1009.62 1009.83 1010.00 1010.15 1010.30 1010.44 1010.60 1010.76 1010.94 1011.11 1011.28 1011.40 1011.48 1011.49 1011.43 1011.31 1011.13 1010.90 1010.67 1010.44
1007.05 1007.29 1007.65 1008.11 1008.61 1009.09 1009.51 1009.82 1010.00 1010.05 1009.97 1009.80 1009.58 1009.33 1009.11 1008.94 1008.84 1008.81 1008.86 1008.97 1009.11 1009.26 1009.41 1009.53 1009.63 1009.70 1009.75 1009.79 1009.85 1009.92 1010.03 1010.16 1010.31 1010.47 1010.61 1010.71 1010.75 1010.73 1010.62 1010.45 1010.22 1009.96 1009.69 1009.44
1007.36 1007.66 1008.08 1008.57 1009.08 1009.57 1009.99 1010.32 1010.51 1010.59 1010.55 1010.43 1010.25 1010.06 1009.88 1009.74 1009.66 1009.63 1009.65 1009.69 1009.75 1009.80 1009.82 1009.81 1009.76 1009.70 1009.62 1009.56 1009.52 1009.53 1009.58 1009.67 1009.79 1009.92 1010.04 1010.11 1010.12 1010.06 1009.91 1009.70 1009.42 1009.12 1008.81 1008.53
1007.73 1008.09 1008.54 1009.04 1009.56 1010.04 1010.45 1010.77 1010.98 1011.08 1011.08 1011.01 1010.90 1010.77 1010.65 1010.56 1010.50 1010.48 1010.47 1010.46 1010.44 1010.38 1010.29 1010.15 1009.98 1009.79 1009.60 1009.44 1009.32 1009.26 1009.25 1009.31 1009.39 1009.50 1009.58 1009.63 1009.61 1009.51 1009.33 1009.07 1008.76 1008.42 1008.07 1007.76
1008.10 1008.51 1008.98 1009.49 1009.99 1010.45 1010.85 1011.15 1011.37 1011.50 1011.54 1011.53 1011.48 1011.42 1011.36 1011.31 1011.28 1011.26 1011.23 1011.18 1011.08 1010.94 1010.74 1010.50 1010.22 1009.93 1009.64 1009.40 1009.21 1009.09 1009.04 1009.05 1009.11 1009.18 1009.24 1009.26 1009.21 1009.08 1008.86 1008.57 1008.22 1007.84 1007.46 1007.10
1008.42 1008.88 1009.37 1009.87 1010.35 1010.80 1011.17 1011.48 1011.70 1011.84 1011.93 1011.96 1011.97 1011.96 1011.96 1011.95 1011.94 1011.91 1011.86 1011.76 1011.61 1011.39 1011.11 1010.79 1010.43 1010.06 1009.71 1009.40 1009.16 1008.99 1008.90 1008.87 1008.89 1008.93 1008.96 1008.94 1008.86 1008.70 1008.45 1008.14 1007.76 1007.35 1006.93 1006.53
1008.72 1009.21 1009.71 1010.21 1010.68 1011.10 1011.46 1011.76 1011.98 1012.14 1012.25 1012.32 1012.37 1012.40 1012.42 1012.43 1012.43 1012.39 1012.31 1012.18 1011.97 1011.70 1011.37 1010.98 1010.57 1010.15 1009.75 1009.40 1009.12 1008.91 1008.78 1008.71 1008.69 1008.68 1008.66 1008.60 1008.48 1008.29 1008.02 1007.68 1007.28 1006.85 1006.40 1005.97
1009.04 1009.54 1010.05 1010.54 1010.99 1011.40 1011.75 1012.03 1012.25 1012.42 1012.54 1012.62 1012.69 1012.73 1012.76 1012.77 1012.75 1012.69 1012.58 1012.41 1012.17 1011.86 1011.49 1011.07 1010.63 1010.19 1009.76 1009.39 1009.07 1008.82 1008.64 1008.52 1008.43 1008.36 1008.28 1008.17 1008.00 1007.77 1007.47 1007.11 1006.70 1006.26 1005.81 1005.36
1009.42 1009.93 1010.43 1010.91 1011.35 1011.73 1012.05 1012.32 1012.53 1012.68 1012.80 1012.88 1012.93 1012.97 1012.98 1012.96 1012.92 1012.83 1012.69 1012.48 1012.22 1011.89 1011.50 1011.07 1010.62 1010.17 1009.74 1009.34 1008.99 1008.69 1008.45 1008.26 1008.09 1007.94 1007.78 1007.60 1007.37 1007.09 1006.77 1006.39 1005.98 1005.55 1005.11 1004.67
1009.90 1010.40 1010.89 1011.34 1011.75 1012.10 1012.40 1012.64 1012.82 1012.95 1013.04 1013.09 1013.12 1013.12 1013.09 1013.04 1012.96 1012.83 1012.66 1012.43 1012.15 1011.81 1011.43 1011.01 1010.57 1010.12 1009.68 1009.26 1008.88 1008.53 1008.22 1007.93 1007.67 1007.42 1007.16 1006.88 1006.59 1006.26 1005.90 1005.52 1005.12 1004.72 1004.31 1003.90
1010.47 1010.95 1011.41 1011.83 1012.20 1012.52 1012.77 1012.97 1013.11 1013.20 1013.25 1013.27 1013.25 1013.20 1013.13 1013.03 1012.90 1012.74 1012.54 1012.30 1012.02 1011.69 1011.32 1010.92 1010.50 1010.06 1009.62 1009.19 1008.76 1008.35 1007.95 1007.57 1007.20 1006.83 1006.46 1006.09 1005.72 1005.33 1004.95 1004.57 1004.19 1003.82 1003.46 1003.12
1011.10 1011.55 1011.97 1012.35 1012.67 1012.94 1013.15 1013.30 1013.39 1013.43 1013.43 1013.39 1013.32 1013.22 1013.10 1012.96 1012.79 1012.60 1012.39 1012.14 1011.86 1011.55 1011.21 1010.85 1010.45 1010.03 1009.59 1009.13 1008.67 1008.19 1007.71 1007.23 1006.74 1006.26 1005.79 1005.32 1004.87 1004.44 1004.03 1003.65 1003.30 1002.98 1002.69 1002.42
1011.74 1012.14 1012.51 1012.84 1013.11 1013.33 1013.49 1013.58 1013.63 1013.62 1013.57 1013.48 1013.36 1013.21 1013.04 1012.86 1012.67 1012.46 1012.23 1011.99 1011.73 1011.45 1011.14 1010.81 1010.44 1010.04 1009.61 1009.14 1008.64 1008.11 1007.56 1006.99 1006.40 1005.82 1005.25 1004.70 1004.19 1003.72 1003.30 1002.93 1002.61 1002.34 1002.12 1001.92
1012.30 1012.67 1012.99 1013.27 1013.49 1013.65 1013.76 1013.81 1013.81 1013.76 1013.66 1013.53 1013.37 1013.19 1012.99 1012.78 1012.57 1012.35 1012.13 1011.90 1011.66 1011.41 1011.14 1010.84 1010.51 1010.13 1009.71 1009.24 1008.72 1008.16 1007.55 1006.92 1006.26 1005.61 1004.97 1004.37 1003.82 1003.32 1002.89 1002.54 1002.25 1002.03 1001.87 1001.74
Thickness
5730 5737 5737 5737 5735 5728 5722 5719 5712 5722 5726 5746 5752 5753 5754 5751 5746 5742 5737 5734 5732 5728 5723 5719 5715 5711 5708 5705 5701 5697 5692 5688 5685 5682 5679 5675 5671 5668 5665 5661 5658 5654 5650 5647
5728 5736 5735 5733 5737 5735 5732 5731 5727 5732 5736 5759 5760 5757 5753 5750 5746 5743 5740 5738 5735 5730 5725 5720 5716 5712 5708 5704 5700 5695 5690 5687 5684 5680 5676 5672 5669 5666 5662 5659 5655 5651 5647 5644
5710 5724 5726 5718 5735 5737 5737 5740 5736 5731 5747 5758 5755 5754 5755 5753 5750 5749 5746 5742 5737 5733 5729 5724 5719 5714 5708 5704 5698 5693 5689 5685 5682 5677 5674 5670 5667 5663 5659 5655 5652 5648 5645 5641
5701 5709 5699 5727 5748 5747 5742 5744 5745 5748 5753 5755 5759 5761 5760 5758 5755 5752 5749 5744 5739 5735 5730 5725 5720 5714 5708 5702 5696 5691 5687 5683 5680 5675 5671 5668 5663 5660 5656 5652 5648 5645 5642 5639
5688 5691 5704 5727 5740 5740 5736 5738 5750 5749 5753 5755 5756 5755 5754 5758 5758 5757 5754 5749 5744 5738 5732 5724 5718 5712 5706 5699 5694 5689 5685 5681 5678 5674 5669 5665 5661 5657 5653 5649 5645 5642 5639 5635
5685 5689 5691 5721 5740 5744 5738 5730 5751 5749 5749 5748 5750 5740 5750 5760 5758 5754 5750 5746 5741 5735 5728 5720 5715 5709 5703 5697 5691 5687 5685 5681 5677 5672 5667 5663 5659 5655 5651 5646 5643 5639 5636 5633
5683 5686 5701 5729 5737 5737 5716 5728 5747 5746 5747 5746 5747 5752 5759 5760 5756 5752 5747 5742 5737 5731 5724 5719 5713 5706 5700 5694 5691 5689 5685 5680 5674 5670 5665 5661 5657 5652 5648 5643 5639 5636 5633 5630
5679 5681 5696 5730 5729 5724 5727 5737 5741 5743 5745 5746 5748 5749 5752 5753 5751 5747 5742 5737 5732 5726 5720 5715 5709 5704 5697 5693 5692 5686 5681 5676 5671 5667 5663 5659 5653 5649 5644 5640 5635 5632 5629 5626
5691 5699 5716 5722 5725 5729 5730 5730 5736 5739 5743 5744 5744 5745 5745 5744 5743 5741 5738 5733 5729 5722 5715 5709 5705 5701 5696 5692 5687 5681 5676 5671 5667 5663 5658 5654 5649 5645 5640 5635 5631 5628 5624 5622
5692 5705 5714 5719 5722 5726 5728 5730 5735 5739 5740 5741 5740 5740 5738 5736 5734 5733 5730 5727 5722 5716 5709 5703 5699 5696 5694 5689 5683 5677 5671 5667 5662 5658 5654 5650 5645 5641 5636 5633 5628 5625 5621 5618
5689 5702 5709 5718 5720 5723 5726 5730 5733 5736 5736 5735 5735 5733 5731 5728 5727 5726 5723 5720 5716 5711 5705 5701 5696 5692 5688 5683 5678 5672 5667 5662 5658 5654 5650 5646 5642 5638 5635 5632 5628 5623 5620 5616
5690 5703 5703 5710 5718 5722 5722 5724 5727 5728 5728 5729 5729 5726 5724 5722 5721 5719 5716 5713 5708 5704 5700 5695 5690 5685 5681 5677 5673 5667 5662 5657 5653 5649 5645 5641 5637 5635 5633 5629 5626 5621 5616 5612
5697 5704 5705 5710 5713 5716 5717 5719 5721 5721 5721 5720 5720 5720 5718 5715 5712 5710 5708 5705 5701 5697 5693 5688 5684 5680 5676 5671 5667 5662 5657 5652 5648 5644 5640 5636 5632 5628 5627 5626 5623 5618 5614 5609
5695 5697 5698 5702 5703 5706 5709 5710 5712 5712 5712 5713 5711 5710 5710 5707 5703 5700 5698 5697 5694 5690 5685 5681 5677 5673 5670 5665 5660 5655 5651 5647 5643 5638 5634 5630 5626 5623 5619 5617 5615 5615 5613 5607
5689 5691 5691 5694 5695 5696 5698 5700 5700 5698 5699 5700 5701 5700 5699 5696 5693 5690 5689 5688 5684 5680 5676 5673 5669 5665 5662 5658 5653 5649 5644 5640 5636 5632 5628 5624 5620 5616 5613 5609 5607 5606 5605 5603
5679 5682 5684 5684 5683 5684 5686 5687 5686 5685 5686 5686 5687 5687 5687 5685 5681 5679 5679 5678 5674 5670 5667 5663 5660 5658 5655 5650 5646 5641 5637 5633 5629 5624 5620 5616 5613 5609 5606 5603 5600 5598 5596 5594
5669 5668 5669 5669 5670 5671 5672 5673 5673 5673 5673 5673 5674 5675 5674 5671 5669 5668 5667 5666 5664 5661 5658 5655 5652 5649 5646 5642 5637 5633 5629 5624 5621 5616 5612 5608 5605 5601 5598 5595 5593 5591 5589 5587
5661 5660 5660 5660 5659 5659 5660 5661 5662 5662 5661 5662 5663 5662 5660 5659 5657 5656 5656 5655 5652 5648 5646 5644 5642 5639 5636 5632 5628 5623 5619 5615 5611 5607 5603 5599 5596 5593 5590 5587 5584 5582 5580 5578
5650 5649 5649 5649 5649 5648 5648 5648 5649 5650 5651 5651 5651 5650 5649 5648 5647 5645 5644 5642 5640 5637 5635 5633 5631 5628 5625 5622 5618 5613 5608 5604 5600 5596 5593 5589 5586 5583 5579 5577 5574 5572 5570 5568
5637 5638 5638 5637 5638 5637 5637 5637 5638 5638 5639 5640 5639 5638 5637 5636 5635 5633 5632 5629 5627 5626 5624 5622 5619 5616 5613 5610 5606 5602 5597 5593 5589 5586 5582 5579 5575 5572 5568 5566 5563 5561 5559 5557
5624 5625 5625 5625 5625 5625 5626 5627 5627 5627 5627 5628 5627 5626 5625 5624 5623 5621 5619 5616 5615 5614 5612 5609 5606 5604 5601 5597 5594 5590 5586 5581 5578 5574 5570 5566 5563 5560 5557 5554 5552 5550 5548 5547
5612 5613 5613 5613 5613 5613 5614 5615 5616 5616 5616 5616 5616 5615 5613 5611 5610 5609 5607 5604 5604 5602 5599 5596 5594 5592 5588 5585 5581 5577 5573 5569 5565 5561 5557 5554 5550 5547 5545 5542 5540 5539 5537 5536
5600 5600 5600 5600 5600 5600 5601 5602 5603 5604 5604 5603 5603 5603 5601 5599 5597 5596 5594 5593 5591 5590 5587 5584 5582 5579 5576 5572 5568 5563 5560 5556 5552 5548 5544 5541 5538 5535 5533 5531 5529 5528 5527 5526
5587 5588 5587 5588 5589 5589 5589 5590 5591 5591 5591 5591 5591 5590 5589 5587 5585 5583 5582 5581 5579 5577 5574 5570 5568 5565 5562 5558 5553 5549 5545 5542 5538 5535 5532 5528 5525 5523 5521 5519 5518 5518 5517 5517
5576 5576 5576 5576 5576 5577 5577 5577 5578 5578 5578 5578 5578 5577 5576 5575 5573 5571 5570 5568 5566 5563 5560 5557 5554 5551 5547 5543 5539 5535 5532 5528 5525 5522 5519 5516 5514 5511 5509 5508 5508 5508 5508 5508
5565 5564 5564 5564 5565 5565 5565 5565 5565 5565 5565 5565 5564 5563 5562 5561 5559 5557 5556 5554 5552 5549 5546 5543 5540 5537 5533 5529 5526 5522 5518 5515 5513 5510 5507 5505 5503 5501 5499 5498 5498 5498 5499 5499
5553 5553 5553 5554 5554 5553 5554 5553 5553 5552 5551 5551 5550 5549 5548 5547 5545 5544 5542 5540 5537 5535 5532 5529 5526 5522 5519 5516 5512 5509 5506 5503 5501 5499 5496 5494 5492 5490 5489 5488 5488 5489 5489 5490